sat.trackr.live / text

‹ back to catalog

STARLINK-34592

NORAD 64746 · 2025-144Y

PAYLOAD ACTIVE UNKNOWN

§ Identity

Operator
Country
US
Launch date
2025-07-02
Launch site
AFETR
Launch vehicle
Mass (kg)
RCS (m²)

Purposes: comms

External: N2YO · Heavens-Above · Gunter

§ Orbital elements

Epoch: 2026-09-20T12:06:23.488992Z

Period
93.85 min
Inclination
53.1604°
Eccentricity
0.0001147
Mean motion
15.34397272 rev/d
Perigee alt
461.9 km
Apogee alt
463.5 km
Semi-major
6,840.8 km
B*
7.6337e-4
RAAN
341.6143°
Arg perigee
64.0220°
Mean anomaly
296.0901°
Rev number
6,974

§ Raw data

STARLINK-345921 64746U 25144Y   26263.50443853  .00025501  00000+0  76337-3 0  99952 64746  53.1604 341.6143 0001147  64.0220 296.0901 15.34397272 69743

JSON: /api/v1/satellites/64746 · /tle

For live sub-satellite position, see the globe view (requires WebGL).

§ Visibility from observer

Set your observer location to see the next 7 days of passes ≥ 10°. The values pass through the URL so the page stays shareable.

No JS? Fill the form by hand. The geolocation button needs JavaScript.